GW1009 Weather Reports


time (UTC)temp
F
wind
direction
speed
knots
gust
knots
rain 1hr
in
rain 24hr
in
rain mn
in
humidity
%
barometer
mb
20260509164547 48 178 1.7 6.1 0.01 0.13 0.11 88 1008.0
20260509164047 48 187 2.6 7.0 0.01 0.13 0.11 88 1008.1
20260509163548 48 161 2.6 7.0 0.01 0.13 0.11 88 1008.2
20260509163046 48 189 1.7 7.8 0.01 0.13 0.11 89 1008.2
20260509162545 48 155 3.5 7.8 0.01 0.13 0.11 88 1008.4
20260509162046 48 147 2.6 7.8 0.01 0.13 0.11 89 1008.4
20260509161555 48 146 5.2 7.8 0.01 0.13 0.11 89 1008.4
20260509161043 48 170 3.5 7.0 0.01 0.13 0.11 89 1008.5
20260509160544 48 113 2.6 7.8 0.01 0.13 0.11 89 1008.6
20260509160042 49 194 1.7 7.8 0.01 0.13 0.11 90 1008.6
20260509155540 48 167 2.6 7.8 0.01 0.13 0.11 90 1008.7
20260509155040 48 136 3.5 6.1 0.01 0.13 0.11 90 1008.8
20260509154546 48 169 0.9 7.0 0.00 0.12 0.10 90 1008.8
20260509154038 48 191 2.6 7.0 0.01 0.12 0.10 91 1009.0
20260509153539 48 136 3.5 7.0 0.01 0.12 0.10 91 1008.8
20260509153052 48 130 3.5 6.1 0.01 0.12 0.10 91 1009.0
20260509152535 48 139 1.7 6.1 0.02 0.12 0.10 91 1009.0
20260509152035 47 128 3.5 7.0 0.02 0.12 0.10 91 1009.1
20260509151534 47 130 1.7 7.0 0.02 0.12 0.10 91 1009.0
20260509151033 47 126 2.6 7.0 0.03 0.12 0.10 91 1009.0
20260509150532 47 141 1.7 7.0 0.03 0.12 0.10 91 1009.1
20260509150032 47 133 2.6 7.0 0.04 0.12 0.10 91 1009.1
20260509145531 46 146 1.7 7.0 0.05 0.13 0.10 91 1009.1
20260509145030 46 166 1.7 6.1 0.05 0.13 0.10 91 1009.1
20260509144529 46 146 2.6 6.1 0.05 0.13 0.10 91 1009.1
20260509144028 46 156 1.7 7.0 0.04 0.12 0.09 91 1009.2
20260509143527 46 142 2.6 7.8 0.04 0.12 0.09 91 1009.2
20260509143028 46 130 4.3 7.8 0.04 0.12 0.09 91 1009.2
20260509142525 46 139 1.7 6.1 0.04 0.11 0.08 91 1009.3
20260509142024 45 147 2.6 6.1 0.04 0.11 0.08 90 1009.3
20260509141533 45 115 2.6 7.0 0.04 0.11 0.08 91 1009.3
20260509141024 45 135 1.7 5.2 0.04 0.10 0.07 90 1009.2
20260509140523 45 152 0.9 6.1 0.04 0.10 0.07 90 1009.2
20260509140022 45 139 3.5 6.1 0.03 0.09 0.06 90 1009.2
20260509135522 45 111 1.7 4.3 0.02 0.08 0.05 90 1009.2
20260509135021 45 143 1.7 6.1 0.03 0.08 0.05 90 1009.2
20260509134520 45 156 2.6 6.1 0.03 0.08 0.05 90 1009.2
20260509134023 45 155 1.7 5.2 0.03 0.08 0.05 90 1009.2
20260509133520 45 128 1.7 5.2 0.03 0.08 0.05 90 1009.4
20260509133022 45 124 0.9 4.3 0.04 0.08 0.05 90 1009.3
20260509132521 45 140 0.0 2.6 0.03 0.07 0.04 90 1009.3
20260509132018 44 148 0.9 2.6 0.03 0.07 0.04 90 1009.3
20260509131521 44 94 0.9 2.6 0.03 0.07 0.04 90 1009.3
20260509131016 44 94 0.9 2.6 0.02 0.06 0.03 89 1009.3
20260509130516 44 96 0.9 2.6 0.02 0.06 0.03 89 1009.4
20260509130015 44 88 0.9 3.5 0.02 0.06 0.03 89 1009.4
20260509125516 44 88 1.7 3.5 0.02 0.06 0.03 88 1009.6
20260509125016 44 98 0.9 3.5 0.02 0.05 0.02 89 1009.6
20260509124513 44 144 1.7 3.5 0.02 0.05 0.02 88 1009.6
20260509124014 44 109 0.9 4.3 0.02 0.05 0.02 88 1009.7
20260509123513 44 128 0.0 4.3 0.02 0.05 0.02 88 1009.8
20260509123012 44 128 0.9 4.3 0.01 0.04 0.01 88 1009.8
20260509122508 43 138 2.6 4.3 0.01 0.04 0.01 88 1009.9
20260509122010 43 136 1.7 6.1 0.01 0.04 0.01 87 1009.9
20260509121508 43 153 1.7 6.1 0.01 0.04 0.01 87 1010.0
20260509121010 43 149 1.7 7.0 0.01 0.04 0.01 87 1010.1
20260509120506 43 142 2.6 7.8 0.01 0.04 0.01 87 1010.1
20260509120007 43 133 3.5 7.0 0.01 0.04 0.01 86 1010.0
20260509115506 43 143 3.5 6.1 0.01 0.04 0.01 86 1010.1
20260509115010 42 134 1.7 5.2 0.00 0.03 0.00 85 1010.1
20260509114506 42 98 0.9 3.5 0.00 0.03 0.00 84 1010.1
20260509114006 42 99 1.7 3.5 0.00 0.03 0.00 83 1010.0
20260509113506 43 103 1.7 7.0 0.00 0.03 0.00 84 1010.1
20260509113005 43 139 2.6 7.0 0.00 0.03 0.00 84 1010.0
20260509112505 43 146 1.7 7.0 0.00 0.03 0.00 84 1010.0
20260509112006 43 132 2.6 4.3 0.00 0.03 0.00 84 1010.1
20260509111504 43 117 2.6 6.1 0.00 0.03 0.00 84 1010.0
20260509111003 43 140 2.6 6.1 0.00 0.03 0.00 84 1010.1
20260509110506 43 138 2.6 7.0 0.00 0.03 0.00 84 1010.1
20260509110004 43 135 1.7 7.8 0.00 0.03 0.00 84 1010.0
20260509105502 42 139 3.5 7.8 0.00 0.03 0.00 84 1009.8
20260509105002 42 142 3.5 7.0 0.00 0.03 0.00 83 1009.8
20260509104503 42 146 3.5 7.0 0.00 0.03 0.00 83 1009.8
20260509104001 42 133 3.5 7.0 0.00 0.03 0.00 83 1009.7
20260509103501 42 150 3.5 7.0 0.00 0.03 0.00 82 1009.8
20260509103108 42 146 2.6 7.0 0.00 0.03 0.00 82 1009.7
20260509102558 41 135 1.7 6.1 0.00 0.03 0.00 81 1009.7
20260509102057 40 150 1.7 4.3 0.00 0.03 0.00 80 1009.7
20260509101615 40 101 0.0 0.0 0.00 0.03 0.00 77 1009.6
20260509101055 39 81 0.0 0.0 0.00 0.03 0.00 76 1009.5
20260509100556 39 81 0.0 1.7 0.00 0.03 0.00 76 1009.6
20260509100059 39 85 0.0 2.6 0.00 0.03 0.00 76 1009.4
20260509095554 39 92 0.0 2.6 0.00 0.04 0.00 75 1009.5
20260509095053 39 92 0.0 4.3 0.00 0.04 0.00 76 1009.7
20260509094559 39 90 0.0 6.1 0.00 0.04 0.00 77 1009.7
20260509094052 39 115 2.6 6.1 0.00 0.04 0.00 76 1009.4
20260509093552 39 123 2.6 5.2 0.00 0.04 0.00 78 1009.7
20260509093051 38 120 1.7 2.6 0.00 0.04 0.00 80 1009.8
20260509092550 38 123 0.9 2.6 0.00 0.04 0.00 80 1009.8
20260509092052 38 123 0.9 2.6 0.00 0.04 0.00 80 1010.0
20260509091554 38 123 0.0 2.6 0.00 0.04 0.00 80 1009.9
20260509091049 38 123 0.9 2.6 0.00 0.04 0.00 80 1009.9
20260509090549 38 123 1.7 2.6 0.00 0.04 0.00 81 1010.0
20260509090055 37 124 0.9 2.6 0.00 0.04 0.00 82 1010.1
20260509085548 37 126 0.9 3.5 0.00 0.06 0.00 83 1010.1
20260509085048 37 128 1.7 5.2 0.00 0.06 0.00 84 1010.0
20260509084558 37 87 1.7 5.2 0.00 0.06 0.00 84 1010.0
20260509084048 37 103 1.7 6.1 0.00 0.06 0.00 84 1010.1
20260509083547 37 125 2.6 6.1 0.00 0.06 0.00 84 1010.1
20260509083059 36 117 1.7 5.2 0.00 0.06 0.00 84 1010.2
20260509082546 36 123 2.6 6.1 0.00 0.06 0.00 84 1010.3
20260509082050 36 105 2.6 5.2 0.00 0.06 0.00 84 1010.4
20260509081546 36 128 1.7 5.2 0.00 0.06 0.00 84 1010.4
20260509081045 36 111 1.7 5.2 0.00 0.06 0.00 84 1010.4
20260509080548 36 128 1.7 3.5 0.00 0.06 0.00 84 1010.3
20260509080049 36 132 1.7 3.5 0.00 0.06 0.00 84 1010.4
20260509075544 36 115 1.7 2.6 0.00 0.06 0.00 84 1010.3
20260509075044 35 115 1.7 2.6 0.00 0.06 0.00 84 1010.3
20260509074602 35 115 0.9 2.6 0.00 0.06 0.00 84 1010.3
20260509074043 35 109 1.7 3.5 0.00 0.06 0.00 84 1010.2
20260509073546 35 109 1.7 5.2 0.00 0.06 0.00 84 1010.2
20260509073100 35 107 2.6 5.2 0.00 0.06 0.00 85 1010.1
20260509072542 35 101 2.6 3.5 0.00 0.06 0.00 86 1010.1
20260509072040 34 101 2.6 5.2 0.00 0.06 0.00 86 1010.1
20260509071548 34 101 2.6 3.5 0.00 0.06 0.00 86 1010.1
20260509071041 34 109 1.7 3.5 0.00 0.06 0.00 85 1010.3
20260509070538 34 107 1.7 5.2 0.00 0.06 0.00 85 1010.2
20260509070040 35 107 2.6 5.2 0.00 0.06 0.00 85 1010.2
20260509065535 34 107 2.6 3.5 0.00 0.06 0.00 85 1010.3
20260509065035 34 105 1.7 3.5 0.00 0.06 0.00 85 1010.4
20260509064537 34 106 2.6 3.5 0.00 0.06 0.00 85 1010.4
20260509064034 34 104 2.6 3.5 0.00 0.06 0.00 85 1010.3
20260509063532 35 103 2.6 3.5 0.00 0.06 0.00 84 1010.5
20260509063046 35 106 1.7 3.5 0.00 0.06 0.00 84 1010.6
20260509062531 35 105 2.6 3.5 0.00 0.06 0.00 84 1010.8
20260509062030 35 109 2.6 3.5 0.00 0.06 0.00 84 1010.8
20260509061529 35 109 1.7 2.6 0.00 0.06 0.00 83 1010.9
20260509061031 35 109 1.7 3.5 0.00 0.06 0.00 83 1010.9
20260509060530 35 110 1.7 3.5 0.00 0.06 0.00 82 1010.9
20260509060029 35 110 1.7 3.5 0.00 0.06 0.00 82 1010.9
20260509055527 36 109 2.6 3.5 0.00 0.06 0.00 82 1011.0
20260509055027 36 109 1.7 3.5 0.00 0.06 0.00 81 1011.0
20260509054523 36 108 1.7 3.5 0.00 0.06 0.00 81 1011.1
20260509054024 36 108 1.7 3.5 0.00 0.06 0.00 81 1011.0
20260509053522 36 114 1.7 3.5 0.00 0.06 0.00 80 1011.1
20260509053030 36 112 1.7 2.6 0.00 0.06 0.00 80 1011.2
20260509052518 37 112 1.7 2.6 0.00 0.06 0.00 80 1011.3
20260509052018 37 111 1.7 3.5 0.00 0.06 0.00 79 1011.3
20260509051519 37 111 1.7 3.5 0.00 0.06 0.00 79 1011.3
20260509051018 37 111 1.7 3.5 0.00 0.06 0.00 79 1011.3
20260509050517 37 111 1.7 3.5 0.00 0.06 0.00 77 1011.4
20260509050016 38 109 1.7 3.5 0.00 0.06 0.00 76 1011.4
20260509045520 38 105 1.7 3.5 0.00 0.06 0.00 75 1011.4
20260509045016 38 105 2.6 3.5 0.00 0.06 0.00 74 1011.5
20260509044516 38 105 1.7 3.5 0.00 0.06 0.00 73 1011.5
20260509044020 39 106 2.6 3.5 0.00 0.06 0.00 72 1011.5
20260509043516 39 103 1.7 3.5 0.00 0.06 0.00 72 1011.5
20260509043035 39 113 1.7 2.6 0.00 0.06 0.00 71 1011.6
20260509042515 40 124 1.7 2.6 0.00 0.06 0.00 68 1011.6
20260509042013 40 161 0.0 2.6 0.00 0.06 0.00 69 1011.5
20260509041515 39 141 0.9 2.6 0.00 0.06 0.00 71 1011.5
20260509041011 38 113 0.9 2.6 0.00 0.06 0.00 76 1011.5
20260509040508 37 112 0.9 3.5 0.00 0.06 0.00 78 1011.5
20260509040009 37 112 0.9 3.5 0.00 0.06 0.00 79 1011.4
20260509035507 37 113 2.6 3.5 0.00 0.06 0.06 78 1011.4
20260509035007 37 109 0.9 2.6 0.00 0.06 0.06 78 1011.3
20260509034507 37 109 0.0 2.6 0.00 0.06 0.06 78 1011.3
20260509034007 37 109 1.7 2.6 0.00 0.06 0.06 78 1011.3
20260509033510 37 102 1.7 2.6 0.00 0.06 0.06 78 1011.3
20260509033007 37 80 1.7 2.6 0.00 0.06 0.06 78 1011.2
20260509032507 37 78 0.9 2.6 0.00 0.06 0.06 77 1011.3
20260509032006 37 78 1.7 2.6 0.00 0.06 0.06 77 1011.4
20260509031508 37 61 1.7 2.6 0.00 0.06 0.06 77 1011.5
20260509031007 37 61 0.9 2.6 0.00 0.06 0.06 76 1011.4
20260509030506 37 61 1.7 2.6 0.00 0.06 0.06 76 1011.4
20260509030005 37 59 1.7 2.6 0.00 0.06 0.06 76 1011.5
20260509025505 37 55 1.7 2.6 0.00 0.06 0.06 76 1011.5
20260509025009 37 50 0.9 2.6 0.00 0.06 0.06 75 1011.6
20260509024506 37 286 0.9 2.6 0.00 0.06 0.06 74 1011.6
20260509024005 38 285 0.0 1.7 0.00 0.06 0.06 73 1011.6
20260509023505 38 285 0.0 0.0 0.00 0.06 0.06 71 1011.7
20260509023005 39 285 0.0 0.9 0.00 0.06 0.06 71 1011.7
20260509022504 39 285 0.0 0.9 0.00 0.06 0.06 70 1011.7
20260509022006 39 285 0.0 0.0 0.00 0.06 0.06 70 1011.6
20260509021504 38 285 0.0 0.9 0.00 0.06 0.06 71 1011.7
20260509021004 38 285 0.0 0.9 0.00 0.06 0.06 71 1011.8
20260509020503 38 285 0.0 1.7 0.00 0.06 0.06 70 1011.7
20260509020003 38 301 0.0 1.7 0.00 0.06 0.06 70 1011.6
20260509015503 38 301 0.0 1.7 0.00 0.06 0.06 71 1011.6
20260509015004 38 301 0.0 1.7 0.00 0.06 0.06 70 1011.4
20260509014507 38 301 0.0 1.7 0.00 0.06 0.06 70 1011.4
20260509014102 38 301 0.0 2.6 0.00 0.06 0.06 70 1011.4
20260509013501 38 301 0.9 2.6 0.00 0.06 0.06 70 1011.2
20260509013002 39 299 0.0 0.0 0.00 0.06 0.06 69 1011.2
20260509012502 39 300 0.0 0.0 0.00 0.06 0.06 68 1011.0
20260509012001 39 300 0.0 0.0 0.00 0.06 0.06 68 1011.1
20260509011501 39 300 0.0 0.0 0.00 0.06 0.06 67 1011.1
20260509011002 40 300 0.0 0.0 0.00 0.06 0.06 66 1010.9
20260509010500 40 300 0.0 0.9 0.00 0.06 0.06 65 1010.9
20260509005600 40 300 0.0 1.7 0.00 0.06 0.06 63 1010.8
20260509005104 41 300 0.0 0.9 0.00 0.06 0.06 60 1010.6
20260509004603 41 300 0.0 1.7 0.00 0.06 0.06 59 1010.4
20260509004100 41 300 0.0 1.7 0.00 0.06 0.06 62 1010.3
20260509003600 42 300 0.9 1.7 0.00 0.06 0.06 64 1010.3
20260509003103 42 300 0.9 1.7 0.00 0.06 0.06 64 1010.3
20260509002603 42 300 0.0 1.7 0.00 0.06 0.06 60 1010.3
20260509002100 43 360 0.9 1.7 0.00 0.06 0.06 58 1010.1
20260509001559 43 300 0.9 2.6 0.00 0.06 0.06 58 1010.0
20260509001058 44 300 0.9 2.6 0.00 0.06 0.06 59 1010.1
20260509000558 45 300 0.0 0.0 0.00 0.06 0.06 58 1010.1
20260508235559 46 300 0.0 2.6 0.00 0.06 0.06 50 1010.0
20260508235059 46 300 0.9 3.5 0.00 0.06 0.06 48 1010.0
20260508234604 46 304 0.9 3.5 0.00 0.06 0.06 48 1010.0
20260508234058 46 302 0.9 3.5 0.00 0.06 0.06 49 1009.9
20260508233558 46 293 0.9 2.6 0.00 0.06 0.06 50 1009.9
20260508233108 47 292 0.9 2.6 0.00 0.06 0.06 49 1009.8
20260508232556 47 305 0.9 3.5 0.00 0.06 0.06 47 1009.8
20260508232057 47 307 1.7 7.8 0.00 0.06 0.06 47 1009.9
20260508231558 47 306 4.3 7.8 0.00 0.06 0.06 48 1009.9
20260508231056 47 301 3.5 8.7 0.00 0.06 0.06 47 1009.9
20260508230559 47 297 4.3 8.7 0.00 0.06 0.06 45 1009.9
20260508230056 48 343 3.5 7.0 0.00 0.06 0.06 46 1009.9
20260508225556 48 319 2.6 7.8 0.00 0.06 0.06 44 1009.9
20260508225056 48 306 3.5 12.2 0.00 0.06 0.06 46 1009.9
20260508224557 48 315 3.5 12.2 0.00 0.06 0.06 45 1009.9
20260508224055 48 297 5.2 12.2 0.00 0.06 0.06 46 1010.0
20260508223555 48 320 7.8 13.0 0.00 0.06 0.06 45 1010.0
20260508223055 49 294 6.1 13.0 0.00 0.06 0.06 43 1009.9
20260508222554 48 261 2.6 10.4 0.00 0.06 0.06 43 1010.0
20260508222054 48 304 4.3 11.3 0.00 0.06 0.06 43 1010.0
20260508221556 48 289 8.7 11.3 0.00 0.06 0.06 42 1010.0
20260508221054 48 293 3.5 8.7 0.00 0.06 0.06 46 1010.1
20260508220556 47 319 5.2 11.3 0.00 0.06 0.06 46 1010.1
20260508220055 48 325 8.7 12.2 0.00 0.06 0.06 45 1010.0
20260508215553 48 294 6.1 13.0 0.00 0.06 0.06 44 1010.1
20260508215053 48 256 1.7 13.0 0.00 0.06 0.06 46 1010.1
20260508214553 49 313 6.1 11.3 0.00 0.06 0.06 45 1010.1
20260508214052 50 306 4.3 10.4 0.00 0.06 0.06 45 1010.1
20260508213552 50 291 1.7 7.8 0.00 0.06 0.06 45 1010.2
20260508213055 50 294 1.7 8.7 0.00 0.06 0.06 44 1010.2
20260508212551 49 273 3.5 13.0 0.00 0.06 0.06 48 1010.3
20260508212050 49 228 5.2 13.0 0.00 0.06 0.06 46 1010.2
20260508211552 49 285 8.7 13.0 0.00 0.06 0.06 44 1010.1
20260508211050 49 301 2.6 11.3 0.00 0.06 0.06 46 1010.1
20260508210552 49 304 6.1 12.2 0.00 0.06 0.06 44 1010.1
20260508210051 49 305 7.0 13.0 0.00 0.06 0.06 45 1010.1
20260508205549 49 301 3.5 13.0 0.00 0.06 0.06 50 1010.1
20260508205049 49 298 4.3 10.4 0.00 0.06 0.06 50 1010.1
20260508204549 49 290 6.1 9.6 0.00 0.06 0.06 48 1010.1
20260508204050 49 265 2.6 14.8 0.00 0.06 0.06 50 1010.1
20260508203546 49 301 5.2 14.8 0.00 0.06 0.06 53 1010.0
20260508203045 48 274 2.6 14.8 0.00 0.06 0.06 57 1010.0
20260508202545 47 304 8.7 14.8 0.00 0.06 0.06 53 1010.1
20260508202041 46 299 5.2 10.4 0.00 0.06 0.06 58 1010.2
20260508201541 45 290 5.2 8.7 0.01 0.06 0.06 59 1010.2
20260508201041 45 305 3.5 10.4 0.01 0.06 0.06 58 1010.3
20260508200540 45 313 5.2 10.4 0.01 0.06 0.06 59 1010.3
20260508200140 46 304 3.5 9.6 0.01 0.06 0.06 64 1010.3
20260508195539 45 321 4.3 9.6 0.01 0.06 0.06 65 1010.3
20260508195039 45 300 6.1 9.6 0.01 0.06 0.06 68 1010.3
20260508194548 44 274 3.5 6.1 0.01 0.06 0.06 68 1010.4
20260508194039 44 305 3.5 8.7 0.01 0.06 0.06 67 1010.3
20260508193539 45 360 4.3 8.7 0.01 0.06 0.06 69 1010.4
20260508193040 45 262 2.6 4.3 0.01 0.06 0.06 70 1010.4
20260508192539 44 274 1.7 3.5 0.01 0.06 0.06 71 1010.6
20260508192038 44 223 0.9 7.0 0.01 0.06 0.06 68 1010.7
20260508191546 45 283 1.7 7.0 0.00 0.05 0.05 67 1010.7
20260508191038 46 241 1.7 4.3 0.00 0.05 0.05 65 1010.7
20260508190540 46 98 1.7 4.3 0.00 0.05 0.05 66 1010.7
20260508190055 46 238 1.7 7.8 0.00 0.05 0.05 67 1010.5
20260508185536 45 204 0.9 6.1 0.00 0.05 0.05 71 1010.6
20260508185035 45 212 1.7 6.1 0.00 0.05 0.05 71 1010.7
20260508184538 45 346 0.9 7.8 0.00 0.05 0.05 70 1010.6
20260508184033 44 297 2.6 7.8 0.00 0.05 0.05 70 1010.7
20260508183532 44 284 1.7 7.0 0.00 0.05 0.05 74 1010.7
20260508183035 44 298 3.5 7.0 0.00 0.05 0.05 73 1010.7
20260508182530 44 310 1.7 5.2 0.00 0.05 0.05 73 1010.8
20260508182034 44 242 1.7 5.2 0.00 0.05 0.05 74 1010.8
20260508181541 44 200 1.7 3.5 0.00 0.05 0.05 75 1010.9
20260508181030 43 254 0.9 3.5 0.00 0.05 0.05 74 1010.9
20260508180528 43 295 0.9 4.3 0.00 0.05 0.05 77 1010.9
20260508180029 42 235 0.0 5.2 0.00 0.05 0.05 76 1011.0
20260508175528 42 227 0.9 6.1 0.00 0.05 0.05 75 1010.8
20260508175030 43 237 2.6 6.1 0.00 0.05 0.05 74 1010.9
20260508174531 43 360 1.7 5.2 0.00 0.05 0.05 75 1010.8
20260508174030 43 261 1.7 6.1 0.00 0.05 0.05 76 1010.8
20260508173529 43 215 2.6 6.1 0.00 0.05 0.05 78 1010.9
20260508173028 42 186 0.9 5.2 0.00 0.05 0.05 81 1010.9
20260508172530 42 221 1.7 3.5 0.00 0.05 0.05 79 1010.9
20260508172027 41 240 0.0 3.5 0.00 0.05 0.05 80 1011.0
20260508171530 41 234 0.0 4.3 0.00 0.05 0.05 81 1011.1
20260508171026 41 248 0.9 5.2 0.00 0.05 0.05 81 1011.2
20260508170526 41 309 2.6 5.2 0.00 0.05 0.05 81 1011.2
20260508170027 41 207 1.7 5.2 0.01 0.05 0.05 81 1011.3
20260508165526 41 250 0.9 5.2 0.01 0.05 0.05 82 1011.3
20260508165026 41 290 1.7 6.1 0.01 0.05 0.05 83 1011.3